Home > Weather > Detmold > Past weeks

Flag for Germany Past Weather in Detmold, North Rhine-Westphalia, Germany — Yesterday and Last 2 Weeks

Now
84 °F

Sunny.


Feels Like: 86 °F
Forecast: 65 / 88 °F
Wind: 5 mph from North

Location: Paderborn / Lippstadt

Current Time: Aug 26, 2016 at 8:48:03 PM

Latest Report: Aug 26, 2016 at 7:50 PM


Visibility: 10 mi

Pressure: 30.04 "Hg

Humidity: 51%

Dew Point: 64 °F

Location of DetmoldLocation

Past Weather in Detmold — Graph

°F

Detmold Temperature Yesterday

Maximum temperature yesterday: 91 °F (at 4:20 PM)
Minimum temperature yesterday: 63 °F (at 6:50 AM)
Average temperature yesterday: 78 °F

High & Low Weather Summary for the Past Weeks

 TemperatureHumidityPressure
High91 °F (Aug 25, 4:20 PM)94% (Aug 11, 10:50 PM)30.36 "Hg (Aug 11, 10:50 PM)
Low46 °F (Aug 16, 6:50 AM)17% (Aug 25, 4:50 PM)29.80 "Hg (Aug 18, 3:50 PM)
Average66 °F66%30.09 "Hg
* Reported Aug 11 7:20 PM — Aug 26 7:50 PM, Detmold, Weather by CustomWeather, © 2016

Note: Actual official high and low records may vary slightly from our data, if they occured in-between our weather recording intervals... More about our weather records

Advertising

Detmold Weather History for the Previous 24 Hours

Scroll right to see more
 ConditionsComfort  
Time TempWeatherWind HumidityBarometerVisibility
7:50 PM
Fri, Aug 26
84 °FSunny.5 mph51%30.04 "Hg10 mi
7:20 PM86 °FSunny.2 mph49%30.04 "Hg10 mi
6:50 PM88 °FPassing clouds.5 mph40%30.04 "HgN/A
6:20 PM90 °FPassing clouds.5 mph38%30.04 "HgN/A
5:50 PM90 °FPassing clouds.3 mph36%30.04 "HgN/A
5:20 PM90 °FPassing clouds.6 mph36%30.04 "HgN/A
4:50 PM90 °FPassing clouds.3 mph33%30.04 "HgN/A
4:20 PM90 °FPassing clouds.5 mph33%30.04 "HgN/A
3:50 PM90 °FPassing clouds.7 mph33%30.04 "HgN/A
3:20 PM90 °FPassing clouds.6 mph31%30.04 "HgN/A
2:50 PM90 °FPassing clouds.5 mph27%30.04 "HgN/A
2:20 PM90 °FPassing clouds.6 mph29%30.04 "HgN/A
1:50 PM90 °FPassing clouds.7 mph33%30.04 "HgN/A
1:20 PM90 °FPassing clouds.7 mph33%30.04 "HgN/A
12:50 PM88 °FSunny.6 mph38%30.01 "Hg10 mi
12:20 PM90 °FSunny.5 mph33%30.01 "Hg10 mi
11:50 AM88 °FPassing clouds.3 mph33%30.01 "HgN/A
11:20 AM86 °FPassing clouds.5 mph38%30.01 "HgN/A
10:50 AM86 °FPassing clouds.6 mph40%30.01 "HgN/A
10:20 AM84 °FSunny.8 mph40%30.01 "Hg10 mi
9:50 AM82 °FSunny.9 mph40%30.01 "Hg10 mi
9:20 AM81 °FSunny.9 mph39%30.01 "Hg10 mi
8:50 AM79 °FSunny.9 mph42%30.01 "Hg10 mi
8:20 AM77 °FSunny.9 mph42%30.01 "Hg10 mi
7:50 AM77 °FSunny.9 mph42%30.01 "Hg10 mi
7:20 AM75 °FClear.12 mph41%30.01 "Hg10 mi
6:50 AM75 °FClear.10 mph41%30.01 "Hg10 mi
6:20 AM75 °FClear.9 mph41%29.98 "Hg10 mi
5:50 AM75 °FClear.10 mph41%29.98 "Hg10 mi
5:20 AM73 °FClear.12 mph44%29.98 "Hg10 mi
4:50 AM75 °FClear.10 mph41%29.98 "Hg10 mi
4:20 AM75 °FClear.12 mph39%29.98 "Hg10 mi
3:50 AM75 °FClear.9 mph41%29.98 "Hg10 mi
3:20 AM75 °FClear.8 mph39%29.98 "Hg10 mi
2:50 AM75 °FClear.8 mph39%29.98 "Hg10 mi
2:20 AM77 °FClear.9 mph36%29.98 "Hg10 mi
1:50 AM75 °FClear.9 mph41%29.98 "Hg10 mi
1:20 AM70 °FClear.8 mph53%30.01 "Hg10 mi
12:50 AM66 °FClear.9 mph64%30.01 "Hg10 mi
12:20 AM70 °FPassing clouds.3 mph53%30.01 "HgN/A
11:50 PM
Thu, Aug 25
70 °FClear.3 mph53%30.01 "Hg10 mi
11:20 PM70 °FClear.1 mph50%30.01 "Hg10 mi
10:50 PM70 °FClear.1 mph50%30.01 "Hg10 mi
10:20 PM72 °FClear.2 mph47%30.01 "Hg10 mi
9:50 PM77 °FClear.5 mph36%30.01 "Hg10 mi
9:20 PM79 °FSunny.5 mph34%30.01 "Hg10 mi
8:50 PM81 °FPassing clouds.5 mph34%30.01 "HgN/A
8:20 PM82 °FSunny.5 mph32%30.01 "Hg10 mi
Weather by CustomWeather, © 2016

See weather overviewHow to use our weather pages